Regional Weather Roundup
Issued by NWS Newport/Morehead, NC

Current Version | Previous Version | Graphics & Text | Print | Product List | Glossary On
Versions: 1 2 3 4 5 6 7 8 9 10 11 12 13 14 15 16 17 18 19 20 21 22 23 24 25 26 27 28 29 30 31 32 33 34 35 36 37 38 39 40 41 42 43 44 45 46 47 48 49 50
000
ASUS42 KMHX 041212
RWRMHX
WEATHER ROUNDUP FOR EASTERN NORTH CAROLINA
NATIONAL WEATHER SERVICE NEWPORT/MOREHEAD CITY NC
800 AM EDT MON MAY 04 2015

NOTE: "FAIR" INDICATES FEW OR NO CLOUDS BELOW 12,000 FEET
WITH NO SIGNIFICANT WEATHER AND/OR OBSTRUCTIONS TO VISIBILITY

NCZ015>017-031-032-045>047-102-103-041300-
NORTH COAST

CITY           SKY/WX    TMP DP  RH WIND       PRES   REMARKS
EDENTON        SUNNY     63  53  69 CALM      30.31R
ELIZABETH CITY SUNNY     62  51  67 W7        30.31R
KITTY HAWK     SUNNY     64  54  71 W5        30.30R
MANTEO         SUNNY     62  53  73 W3        30.32R

$$

NCZ045>047-081-094-103-104-041300-
CENTRAL COAST

CITY           SKY/WX    TMP DP  RH WIND       PRES   REMARKS
FRISCO         SUNNY     63  58  83 NW5       30.32R
SWANQUARTER      N/A     63 N/A N/A NW2       30.30R

$$

NCZ095-097-098-100-101-041300-
SOUTHERN COAST

CITY           SKY/WX    TMP DP  RH WIND       PRES   REMARKS
BEAUFORT       SUNNY     64  62  93 NW5       30.32R
CEDAR ISLAND     N/A     66 N/A N/A NW3       30.36R
JACKSONVILLE   SUNNY     61  56  83 CALM      30.32R
PINEY ISLAND   SUNNY    N/A N/A N/A CALM      30.32R
WILMINGTON     MOSUNNY   60  56  86 CALM      30.31R


$$

NCZ011>013-027>030-043-044-078>080-089-090>093-098-041300-
COASTAL PLAIN

CITY           SKY/WX    TMP DP  RH WIND       PRES   REMARKS
AHOSKIE        CLOUDY    57  52  82 CALM      30.31R
CLINTON        MOSUNNY   56  55  96 CALM      30.32R
ELIZABETHTOWN  PTSUNNY   57  55  93 CALM      30.31R
GOLDSBORO      CLOUDY    57  54  89 CALM      30.29R
GREENVILLE     MOSUNNY   61  54  77 CALM      30.31R
HAVELOCK       SUNNY     59  54  83 CALM      30.33R
KENANSVILLE    PTSUNNY   54  52  92 CALM      30.33R
KINSTON        MOSUNNY   57  55  94 CALM      30.32R
NEW BERN       SUNNY     59  55  87 CALM      30.33R
RICHLANDS      SUNNY     55  50  82 CALM      30.32R
ROCKY MOUNT    MOSUNNY   60  52  74 S5        30.31R
WASHINGTON       N/A     60  54  80 W3        30.32R
WHITEVILLE     MOSUNNY   57  55  92 CALM      30.31R

$$

AMZ130-135-150-152-154-156-158-170-250-252-270-ANZ085-086-088-633-658-670-041300-
MARINE OBSERVATIONS

STATION/POSITION TIME  TEMP    WIND        PRES    WAVE   SWELL
                       AIR SEA DIR/SP/G            HT/PER HT/PER
                 (UTC) (F)     (DEG/KT/KT) (MB)    (FT/S) (FT/S)
CHESAPEAKE LIGHT 1200   65     270/ 14/ 14 1026.3
64 E VA BEACH    1150   60 59  270/  6/  8 1025.6    4/10   3/10
DUCK             1100   62 54  270/  4/  6 1024.7
2 E DUCK         1111      56                N/A     3/11   2/11
OREGON INLET     1100   63 62  290/  4/  5 1025.8
13E OREGON INLT  1200      54                N/A     3/13   2/13
HATTERAS CG      1100   65 63   10/  3/  6 1025.7
DIAMOND BUOY     1150   66     330/  6/  8 1026.6    4/10   5/10
CAPE LOOKOUT     1200   67     320/  4/  4 1026.4
BEAUFORT LAB     1100   62 65  360/  1/  2 1025.1
27 SE WRIGHTSVLE 1100   68 71  320/  4/  6   N/A
5 SE WRIGHTSVLE  1108   67 67   70/  2/  4 1026.0
225 S CAPE HAT   1150   68 69   60/ 12/ 16 1026.5    6/12   5/12
41 SE CHARLESTON 1150   74 74   70/  4/  4 1025.6    3/10   2/10

$$


USA.gov is the U.S. government's official web portal to all federal, state and local government web resources and services.